| time (UTC) | temp F | wind direction | speed MPH | gust MPH | rain 1hr in | rain 24hr in | rain mn in | humidity % | barometer mb |
| 20260505031947 | 53 | 274 | 0.0 | 0.0 | 0.00 | 0.00 | 0.00 | 77 | 1017.2 |
| 20260505031444 | 53 | 274 | 0.0 | 0.0 | 0.00 | 0.00 | 0.00 | 77 | 1017.0 |
| 20260505030941 | 53 | 275 | 0.0 | 0.0 | 0.00 | 0.00 | 0.00 | 77 | 1017.1 |
| 20260505030437 | 53 | 275 | 0.0 | 0.0 | 0.00 | 0.00 | 0.00 | 77 | 1017.3 |
| 20260505025932 | 54 | 248 | 0.0 | 0.0 | 0.00 | 0.00 | 0.00 | 77 | 1017.1 |
| 20260505025430 | 54 | 248 | 0.0 | 0.0 | 0.00 | 0.00 | 0.00 | 76 | 1017.2 |
| 20260505024929 | 54 | 248 | 0.0 | 0.0 | 0.00 | 0.00 | 0.00 | 76 | 1017.0 |
| 20260505024426 | 54 | 248 | 0.0 | 0.0 | 0.00 | 0.00 | 0.00 | 76 | 1017.1 |
| 20260505023923 | 54 | 248 | 0.0 | 0.0 | 0.00 | 0.00 | 0.00 | 75 | 1017.0 |
| 20260505023420 | 55 | 248 | 0.0 | 0.0 | 0.00 | 0.00 | 0.00 | 75 | 1017.1 |
| 20260505022917 | 55 | 248 | 0.0 | 0.0 | 0.00 | 0.00 | 0.00 | 74 | 1017.0 |
| 20260505022414 | 55 | 248 | 0.0 | 0.0 | 0.00 | 0.00 | 0.00 | 73 | 1017.0 |
| 20260505021911 | 56 | 248 | 0.0 | 0.0 | 0.00 | 0.00 | 0.00 | 72 | 1016.9 |
| 20260505021408 | 56 | 248 | 0.0 | 0.0 | 0.00 | 0.00 | 0.00 | 72 | 1017.0 |
| 20260505020903 | 56 | 247 | 0.0 | 0.0 | 0.00 | 0.00 | 0.00 | 72 | 1016.9 |
| 20260505020359 | 57 | 248 | 0.0 | 0.0 | 0.00 | 0.00 | 0.00 | 71 | 1016.7 |
| 20260505015856 | 57 | 248 | 0.0 | 0.0 | 0.00 | 0.00 | 0.00 | 70 | 1016.7 |
| 20260505015353 | 57 | 248 | 0.0 | 0.0 | 0.00 | 0.00 | 0.00 | 69 | 1016.9 |
| 20260505014851 | 58 | 251 | 0.0 | 0.0 | 0.00 | 0.00 | 0.00 | 69 | 1016.7 |
| 20260505014347 | 58 | 287 | 0.0 | 0.0 | 0.00 | 0.00 | 0.00 | 68 | 1016.7 |
| 20260505013844 | 59 | 288 | 0.0 | 0.0 | 0.00 | 0.00 | 0.00 | 67 | 1016.7 |
| 20260505013341 | 59 | 288 | 0.0 | 0.0 | 0.00 | 0.00 | 0.00 | 66 | 1016.6 |
| 20260505012840 | 59 | 289 | 0.0 | 0.0 | 0.00 | 0.00 | 0.00 | 66 | 1016.5 |
| 20260505012337 | 60 | 289 | 0.0 | 0.0 | 0.00 | 0.00 | 0.00 | 64 | 1016.5 |
| 20260505011833 | 60 | 289 | 0.0 | 0.0 | 0.00 | 0.00 | 0.00 | 64 | 1016.4 |
| 20260505011330 | 61 | 289 | 0.0 | 0.0 | 0.00 | 0.00 | 0.00 | 64 | 1016.2 |
| 20260505010826 | 61 | 289 | 0.0 | 0.0 | 0.00 | 0.00 | 0.00 | 62 | 1016.4 |
| 20260505010322 | 62 | 289 | 0.0 | 0.0 | 0.00 | 0.00 | 0.00 | 61 | 1016.3 |
| 20260505005818 | 63 | 289 | 0.0 | 0.0 | 0.00 | 0.00 | 0.00 | 60 | 1016.1 |
| 20260505005315 | 63 | 288 | 0.0 | 0.0 | 0.00 | 0.00 | 0.00 | 56 | 1016.1 |
| 20260505004813 | 64 | 289 | 0.0 | 0.0 | 0.00 | 0.00 | 0.00 | 54 | 1016.1 |
| 20260505004309 | 65 | 289 | 0.0 | 0.0 | 0.00 | 0.00 | 0.00 | 50 | 1016.1 |
| 20260505003806 | 65 | 289 | 0.0 | 0.0 | 0.00 | 0.00 | 0.00 | 49 | 1016.0 |
| 20260505003303 | 66 | 288 | 0.0 | 0.0 | 0.00 | 0.00 | 0.00 | 48 | 1016.2 |
| 20260505002759 | 67 | 288 | 0.0 | 0.0 | 0.00 | 0.00 | 0.00 | 46 | 1015.9 |
| 20260505002257 | 68 | 288 | 0.0 | 0.0 | 0.00 | 0.00 | 0.00 | 44 | 1015.8 |
| 20260505001755 | 69 | 290 | 0.0 | 0.0 | 0.00 | 0.00 | 0.00 | 43 | 1015.7 |
| 20260505001252 | 69 | 283 | 0.0 | 0.0 | 0.00 | 0.00 | 0.00 | 41 | 1015.8 |
| 20260505000749 | 70 | 283 | 0.0 | 0.0 | 0.00 | 0.00 | 0.00 | 41 | 1016.0 |
| 20260505000247 | 71 | 279 | 0.0 | 0.0 | 0.00 | 0.00 | 0.00 | 39 | 1015.7 |
| 20260504235743 | 71 | 279 | 0.0 | 0.0 | 0.00 | 0.00 | 0.00 | 39 | 1015.7 |
| 20260504235239 | 72 | 345 | 0.0 | 0.0 | 0.00 | 0.00 | 0.00 | 37 | 1015.7 |
| 20260504234737 | 73 | 286 | 0.0 | 0.0 | 0.00 | 0.00 | 0.00 | 37 | 1015.6 |
| 20260504234234 | 73 | 241 | 1.0 | 5.0 | 0.00 | 0.00 | 0.00 | 35 | 1015.6 |
| 20260504233730 | 73 | 266 | 0.0 | 0.0 | 0.00 | 0.00 | 0.00 | 35 | 1015.7 |
| 20260504233226 | 74 | 248 | 0.0 | 1.0 | 0.00 | 0.00 | 0.00 | 34 | 1015.4 |
| 20260504232723 | 74 | 318 | 1.0 | 1.0 | 0.00 | 0.00 | 0.00 | 33 | 1015.3 |
| 20260504232220 | 75 | 166 | 0.0 | 3.0 | 0.00 | 0.00 | 0.00 | 33 | 1015.4 |
| 20260504231717 | 75 | 28 | 0.0 | 0.0 | 0.00 | 0.00 | 0.00 | 32 | 1015.3 |
| 20260504231213 | 75 | 189 | 0.0 | 3.0 | 0.00 | 0.00 | 0.00 | 31 | 1015.4 |
| 20260504230709 | 76 | 297 | 0.0 | 1.0 | 0.00 | 0.00 | 0.00 | 32 | 1015.2 |
| 20260504230208 | 76 | 342 | 0.0 | 1.0 | 0.00 | 0.00 | 0.00 | 31 | 1015.2 |
| 20260504225706 | 76 | 222 | 1.0 | 2.0 | 0.00 | 0.00 | 0.00 | 31 | 1015.3 |
| 20260504225202 | 77 | 153 | 1.0 | 2.0 | 0.00 | 0.00 | 0.00 | 31 | 1015.0 |
| 20260504224700 | 77 | 213 | 1.0 | 2.0 | 0.00 | 0.00 | 0.00 | 30 | 1015.4 |
| 20260504224156 | 78 | 134 | 3.0 | 5.0 | 0.00 | 0.00 | 0.00 | 28 | 1015.4 |
| 20260504223653 | 78 | 23 | 1.0 | 5.0 | 0.00 | 0.00 | 0.00 | 29 | 1015.3 |
| 20260504223148 | 78 | 141 | 2.0 | 2.0 | 0.00 | 0.00 | 0.00 | 28 | 1015.3 |
| 20260504222646 | 78 | 47 | 1.0 | 6.0 | 0.00 | 0.00 | 0.00 | 28 | 1015.4 |
| 20260504222142 | 78 | 63 | 1.0 | 5.0 | 0.00 | 0.00 | 0.00 | 29 | 1015.2 |
| 20260504221640 | 78 | 340 | 0.0 | 2.0 | 0.00 | 0.00 | 0.00 | 29 | 1015.4 |
| 20260504221137 | 79 | 145 | 5.0 | 7.0 | 0.00 | 0.00 | 0.00 | 28 | 1015.3 |
| 20260504220633 | 80 | 189 | 2.0 | 5.0 | 0.00 | 0.00 | 0.00 | 28 | 1015.3 |
| 20260504220131 | 79 | 211 | 1.0 | 2.0 | 0.00 | 0.00 | 0.00 | 30 | 1015.4 |
| 20260504215627 | 79 | 203 | 0.0 | 5.0 | 0.00 | 0.00 | 0.00 | 29 | 1015.4 |
| 20260504215125 | 78 | 328 | 0.0 | 7.0 | 0.00 | 0.00 | 0.00 | 30 | 1015.2 |
| 20260504214620 | 79 | 199 | 1.0 | 5.0 | 0.00 | 0.00 | 0.00 | 29 | 1015.5 |
| 20260504214117 | 79 | 248 | 0.0 | 0.0 | 0.00 | 0.00 | 0.00 | 30 | 1015.4 |
| 20260504213614 | 78 | 169 | 3.0 | 3.0 | 0.00 | 0.00 | 0.00 | 29 | 1015.4 |
| 20260504213110 | 78 | 206 | 3.0 | 6.0 | 0.00 | 0.00 | 0.00 | 29 | 1015.4 |
| 20260504212606 | 79 | 214 | 6.0 | 8.0 | 0.00 | 0.00 | 0.00 | 27 | 1015.4 |
| 20260504212104 | 80 | 268 | 1.0 | 8.0 | 0.00 | 0.00 | 0.00 | 28 | 1015.2 |
| 20260504211601 | 79 | 129 | 2.0 | 3.0 | 0.00 | 0.00 | 0.00 | 29 | 1015.3 |
| 20260504211057 | 80 | 57 | 1.0 | 3.0 | 0.00 | 0.00 | 0.00 | 29 | 1015.3 |
| 20260504210555 | 80 | 244 | 1.0 | 2.0 | 0.00 | 0.00 | 0.00 | 28 | 1015.4 |
| 20260504210051 | 80 | 230 | 1.0 | 1.0 | 0.00 | 0.00 | 0.00 | 29 | 1015.4 |
| 20260504205549 | 79 | 211 | 1.0 | 3.0 | 0.00 | 0.00 | 0.00 | 29 | 1015.5 |
| 20260504205047 | 80 | 207 | 4.0 | 7.0 | 0.00 | 0.00 | 0.00 | 28 | 1015.5 |
| 20260504204544 | 80 | 200 | 0.0 | 2.0 | 0.00 | 0.00 | 0.00 | 29 | 1015.6 |
| 20260504204043 | 79 | 121 | 1.0 | 2.0 | 0.00 | 0.00 | 0.00 | 29 | 1015.8 |
| 20260504203541 | 81 | 61 | 2.0 | 5.0 | 0.00 | 0.00 | 0.00 | 28 | 1015.7 |
| 20260504203038 | 80 | 289 | 4.0 | 6.0 | 0.00 | 0.00 | 0.00 | 28 | 1015.7 |
| 20260504202533 | 80 | 236 | 2.0 | 6.0 | 0.00 | 0.00 | 0.00 | 27 | 1015.7 |
| 20260504202031 | 80 | 90 | 2.0 | 3.0 | 0.00 | 0.00 | 0.00 | 27 | 1015.8 |
| 20260504201527 | 80 | 330 | 0.0 | 2.0 | 0.00 | 0.00 | 0.00 | 27 | 1016.0 |
| 20260504201025 | 79 | 137 | 1.0 | 2.0 | 0.00 | 0.00 | 0.00 | 30 | 1016.0 |
| 20260504200521 | 79 | 265 | 0.0 | 5.0 | 0.00 | 0.00 | 0.00 | 28 | 1016.1 |
| 20260504200018 | 79 | 48 | 3.0 | 5.0 | 0.00 | 0.00 | 0.00 | 29 | 1016.1 |
| 20260504195514 | 79 | 150 | 4.0 | 5.0 | 0.00 | 0.00 | 0.00 | 28 | 1016.1 |
| 20260504195011 | 78 | 65 | 1.0 | 2.0 | 0.00 | 0.00 | 0.00 | 31 | 1016.2 |
| 20260504194508 | 79 | 133 | 2.0 | 5.0 | 0.00 | 0.00 | 0.00 | 30 | 1016.1 |
| 20260504194003 | 78 | 203 | 1.0 | 2.0 | 0.00 | 0.00 | 0.00 | 30 | 1016.4 |
| 20260504193501 | 78 | 348 | 0.0 | 3.0 | 0.00 | 0.00 | 0.00 | 30 | 1016.4 |
| 20260504192959 | 78 | 70 | 1.0 | 3.0 | 0.00 | 0.00 | 0.00 | 30 | 1016.5 |
| 20260504192456 | 78 | 75 | 0.0 | 1.0 | 0.00 | 0.00 | 0.00 | 32 | 1016.4 |
| 20260504191955 | 77 | 93 | 1.0 | 1.0 | 0.00 | 0.00 | 0.00 | 33 | 1016.5 |
| 20260504191452 | 79 | 227 | 2.0 | 3.0 | 0.00 | 0.00 | 0.00 | 31 | 1016.6 |
| 20260504190947 | 77 | 274 | 0.0 | 3.0 | 0.00 | 0.00 | 0.00 | 31 | 1016.6 |
| 20260504190443 | 78 | 46 | 1.0 | 5.0 | 0.00 | 0.00 | 0.00 | 32 | 1016.7 |
| 20260504185940 | 78 | 13 | 0.0 | 2.0 | 0.00 | 0.00 | 0.00 | 33 | 1016.6 |
| 20260504185438 | 77 | 50 | 0.0 | 2.0 | 0.00 | 0.00 | 0.00 | 33 | 1016.9 |
| 20260504184933 | 78 | 333 | 0.0 | 2.0 | 0.00 | 0.00 | 0.00 | 32 | 1016.8 |
| 20260504184429 | 78 | 2 | 0.0 | 3.0 | 0.00 | 0.00 | 0.00 | 33 | 1016.7 |
| 20260504183926 | 78 | 271 | 0.0 | 5.0 | 0.00 | 0.00 | 0.00 | 31 | 1016.6 |
| 20260504183423 | 78 | 212 | 1.0 | 7.0 | 0.00 | 0.00 | 0.00 | 33 | 1016.8 |
| 20260504182921 | 77 | 296 | 3.0 | 7.0 | 0.00 | 0.00 | 0.00 | 33 | 1017.0 |
| 20260504182417 | 78 | 46 | 0.0 | 2.0 | 0.00 | 0.00 | 0.00 | 33 | 1017.0 |
| 20260504181914 | 78 | 333 | 0.0 | 2.0 | 0.00 | 0.00 | 0.00 | 31 | 1017.1 |
| 20260504181412 | 78 | 353 | 4.0 | 6.0 | 0.00 | 0.00 | 0.00 | 32 | 1017.2 |
| 20260504180911 | 78 | 146 | 2.0 | 3.0 | 0.00 | 0.00 | 0.00 | 30 | 1017.2 |
| 20260504180409 | 78 | 283 | 1.0 | 2.0 | 0.00 | 0.00 | 0.00 | 31 | 1017.4 |
| 20260504175907 | 77 | 292 | 0.0 | 3.0 | 0.00 | 0.00 | 0.00 | 32 | 1017.1 |
| 20260504175403 | 77 | 275 | 1.0 | 3.0 | 0.00 | 0.00 | 0.00 | 33 | 1017.4 |
| 20260504174901 | 76 | 7 | 0.0 | 5.0 | 0.00 | 0.00 | 0.00 | 33 | 1017.5 |
| 20260504174358 | 76 | 288 | 1.0 | 1.0 | 0.00 | 0.00 | 0.00 | 32 | 1017.6 |
| 20260504173855 | 76 | 158 | 2.0 | 3.0 | 0.00 | 0.00 | 0.00 | 31 | 1017.6 |
| 20260504173352 | 76 | 300 | 2.0 | 2.0 | 0.00 | 0.00 | 0.00 | 31 | 1017.6 |
| 20260504172849 | 75 | 283 | 0.0 | 2.0 | 0.00 | 0.00 | 0.00 | 34 | 1017.5 |
| 20260504172345 | 75 | 283 | 0.0 | 2.0 | 0.00 | 0.00 | 0.00 | 34 | 1017.5 |
| 20260504171841 | 77 | 297 | 3.0 | 5.0 | 0.00 | 0.00 | 0.00 | 34 | 1017.6 |
| 20260504171339 | 76 | 216 | 0.0 | 1.0 | 0.00 | 0.00 | 0.00 | 33 | 1017.8 |
| 20260504170836 | 74 | 299 | 0.0 | 1.0 | 0.00 | 0.00 | 0.00 | 36 | 1017.9 |
| 20260504170333 | 73 | 264 | 2.0 | 2.0 | 0.00 | 0.00 | 0.00 | 36 | 1017.9 |
| 20260504160251 | 72 | 171 | 2.0 | 2.0 | 0.00 | 0.00 | 0.00 | 38 | 1018.9 |
| 20260504150716 | 69 | 179 | 2.0 | 2.0 | 0.00 | 0.00 | 0.00 | 45 | 1019.1 |
| 20260504150213 | 69 | 6 | 1.0 | 1.0 | 0.00 | 0.00 | 0.00 | 45 | 1019.1 |
| 20260504141142 | 65 | 183 | 0.0 | 1.0 | 0.00 | 0.00 | 0.00 | 58 | 1019.6 |
| 20260504140639 | 64 | 161 | 1.0 | 2.0 | 0.00 | 0.00 | 0.00 | 61 | 1019.6 |
| 20260504140134 | 64 | 258 | 1.0 | 2.0 | 0.00 | 0.00 | 0.00 | 58 | 1019.3 |
| 20260504130603 | 60 | 353 | 0.0 | 0.0 | 0.00 | 0.00 | 0.00 | 68 | 1019.1 |
| 20260504110451 | 39 | 250 | 0.0 | 0.0 | 0.00 | 0.00 | 0.00 | 99 | 1019.1 |
| 20260504100413 | 40 | 250 | 0.0 | 0.0 | 0.00 | 0.00 | 0.00 | 99 | 1018.6 |
| 20260504081806 | 40 | 249 | 0.0 | 0.0 | 0.00 | 0.00 | 0.00 | 99 | 1018.1 |
| 20260504081303 | 40 | 249 | 0.0 | 0.0 | 0.00 | 0.00 | 0.00 | 99 | 1018.1 |
| 20260504080759 | 40 | 249 | 0.0 | 0.0 | 0.00 | 0.00 | 0.00 | 98 | 1018.0 |
| 20260504080255 | 40 | 249 | 0.0 | 0.0 | 0.00 | 0.00 | 0.00 | 98 | 1018.2 |
| 20260504070223 | 42 | 250 | 0.0 | 0.0 | 0.00 | 0.00 | 0.00 | 98 | 1018.1 |
| 20260504060144 | 43 | 257 | 0.0 | 0.0 | 0.00 | 0.00 | 0.00 | 96 | 1018.5 |
| 20260504050612 | 44 | 259 | 0.0 | 0.0 | 0.00 | 0.00 | 0.00 | 95 | 1018.4 |
| 20260504050109 | 44 | 266 | 0.0 | 0.0 | 0.00 | 0.00 | 0.00 | 95 | 1018.5 |
| 20260504045606 | 44 | 260 | 0.0 | 0.0 | 0.00 | 0.00 | 0.00 | 95 | 1018.4 |
| 20260504045101 | 44 | 261 | 0.0 | 0.0 | 0.00 | 0.00 | 0.00 | 94 | 1018.4 |
| 20260504044559 | 44 | 256 | 0.0 | 0.0 | 0.00 | 0.00 | 0.00 | 94 | 1018.4 |
| 20260504044055 | 44 | 256 | 0.0 | 0.0 | 0.00 | 0.00 | 0.00 | 94 | 1018.6 |
| 20260504043553 | 44 | 256 | 0.0 | 0.0 | 0.00 | 0.00 | 0.00 | 93 | 1018.5 |
| 20260504043050 | 44 | 256 | 0.0 | 0.0 | 0.00 | 0.00 | 0.00 | 93 | 1018.6 |
| 20260504042547 | 45 | 256 | 0.0 | 0.0 | 0.00 | 0.00 | 0.00 | 93 | 1018.7 |
| 20260504042044 | 45 | 256 | 0.0 | 0.0 | 0.00 | 0.00 | 0.00 | 92 | 1018.9 |
| 20260504041539 | 45 | 256 | 0.0 | 0.0 | 0.00 | 0.00 | 0.00 | 92 | 1018.8 |
| 20260504041036 | 45 | 256 | 0.0 | 0.0 | 0.00 | 0.00 | 0.00 | 91 | 1019.0 |
| 20260504040533 | 45 | 256 | 0.0 | 0.0 | 0.00 | 0.00 | 0.00 | 91 | 1019.1 |
| 20260504040030 | 46 | 256 | 0.0 | 0.0 | 0.00 | 0.00 | 0.00 | 91 | 1019.1 |
| 20260504035527 | 46 | 256 | 0.0 | 0.0 | 0.00 | 0.00 | 0.00 | 90 | 1018.9 |
| 20260504035023 | 46 | 261 | 0.0 | 0.0 | 0.00 | 0.00 | 0.00 | 90 | 1018.9 |
| 20260504034521 | 46 | 258 | 0.0 | 0.0 | 0.00 | 0.00 | 0.00 | 89 | 1019.0 |
| 20260504034017 | 46 | 258 | 0.0 | 0.0 | 0.00 | 0.00 | 0.00 | 89 | 1018.9 |
| 20260504033516 | 46 | 258 | 0.0 | 0.0 | 0.00 | 0.00 | 0.00 | 88 | 1018.7 |
| 20260504033013 | 47 | 262 | 0.0 | 0.0 | 0.00 | 0.00 | 0.00 | 88 | 1018.8 |
| 20260504032509 | 47 | 262 | 0.0 | 0.0 | 0.00 | 0.00 | 0.00 | 87 | 1018.8 |